Weather History for Meadville, PA

Change the Weather History Date:

Thursday, February 14, 2013

  Actual Average Record
Temperature  
Mean Temperature 28 °F -  
Max Temperature 36 °F 33 °F 61 °F (1990)
Min Temperature 21 °F 12 °F -12 °F (1979)
Degree Days  
Heating Degree Days 36    
Moisture  
Dew Point 28 °F    
Average Humidity 87    
Maximum Humidity 93    
Minimum Humidity 72    
Precipitation  
Precipitation 0.10 in - - ()
Sea Level Pressure  
Sea Level Pressure 29.84 in    
Wind  
Wind Speed 7 mph (SSW)    
Max Wind Speed 21 mph    
Max Gust Speed 25 mph    
Visibility 5 miles    
Events Rain , Snow    
Averages and records for this station are not official NWS values.
T = Trace of Precipitation, MM = Missing Value Source: NWS Daily Summary

Daily Weather History Graph

Daily Weather History Graph

Search for Another Location

Airport:

Trip Planner

Search our weather history database for the weather conditions in past years. The results will help you decide how hot, cold, wet, or windy it might be!

Date:

Astronomy

Feb. 14, 2013 Rise Set
Actual Time 7:17 AM EST 5:53 PM EST
Civil Twilight 6:48 AM EST 6:21 PM EST
Nautical Twilight 6:16 AM EST 6:54 PM EST
Astronomical Twilight 5:44 AM EST 7:26 PM EST
Moon 9:13 AM EST (2/14) 10:59 PM EST (2/14)
Length of Visible Light 11h 33m
Length of Day
10h 36m
Waxing Crescent, 21% of the Moon is Illuminated
Feb 14
Waxing Crescent
Feb 17
First Quarter
Feb 25
Full
Mar 4
Last Quarter
Mar 11
New

Hourly Weather History & Observations

Time (EST) Temp. Windchill Dew Point Humidity Pressure Visibility Wind Dir Wind Speed Gust Speed Precip Events Conditions
12:53 AM 21.9 °F 15.7 °F 19.9 °F 92% 29.85 in 5.0 mi SSW 4.6 mph - N/A   Clear
1:53 AM 21.9 °F 17.2 °F 19.9 °F 92% 29.86 in 5.0 mi South 3.5 mph - N/A   Clear
2:53 AM 23.0 °F 17.0 °F 19.0 °F 85% 29.86 in 5.0 mi South 4.6 mph - N/A   Clear
3:53 AM 23.0 °F 17.0 °F 19.9 °F 88% 29.86 in 5.0 mi South 4.6 mph - N/A   Clear
4:53 AM 23.0 °F 15.8 °F 19.9 °F 88% 29.87 in 5.0 mi South 5.8 mph - N/A   Clear
5:53 AM 23.0 °F - 19.9 °F 88% 29.88 in 4.0 mi Calm Calm - N/A   Partly Cloudy
6:53 AM 24.1 °F 18.2 °F 21.0 °F 88% 29.89 in 4.0 mi Variable 4.6 mph - N/A   Mostly Cloudy
7:49 AM 26.6 °F 20.0 °F 23.0 °F 86% 29.86 in 3.0 mi Variable 5.8 mph - N/A   Overcast
7:53 AM 26.1 °F 19.4 °F 23.0 °F 88% 29.91 in 3.0 mi South 5.8 mph - N/A   Overcast
8:05 AM 26.6 °F 20.0 °F 23.0 °F 86% 29.86 in 3.0 mi South 5.8 mph - N/A   Overcast
8:19 AM 26.6 °F 19.1 °F 23.0 °F 86% 29.86 in 2.5 mi SSE 6.9 mph - N/A   Overcast
8:26 AM 26.6 °F 21.2 °F 24.8 °F 93% 29.86 in 3.0 mi Variable 4.6 mph - N/A   Overcast
8:53 AM 27.0 °F 20.5 °F 25.0 °F 92% 29.91 in 3.0 mi Variable 5.8 mph - N/A   Overcast
9:02 AM 28.4 °F 23.3 °F 24.8 °F 86% 29.86 in 2.5 mi Variable 4.6 mph - N/A   Overcast
9:53 AM 28.9 °F 22.8 °F 27.0 °F 92% 29.90 in 3.0 mi Variable 5.8 mph - 0.00 in   Overcast
10:53 AM 30.9 °F 23.5 °F 28.0 °F 89% 29.89 in 3.0 mi South 8.1 mph - N/A   Overcast
11:53 AM 32.0 °F 23.0 °F 28.9 °F 88% 29.88 in 4.0 mi South 11.5 mph 17.3 mph N/A   Overcast
12:53 PM 34.0 °F 26.6 °F 30.0 °F 85% 29.86 in 6.0 mi South 9.2 mph 16.1 mph N/A   Overcast
1:12 PM 33.8 °F 25.8 °F 28.4 °F 81% 29.82 in 7.0 mi South 10.4 mph 20.7 mph N/A   Overcast
1:53 PM 35.1 °F 27.4 °F 30.0 °F 82% 29.85 in 4.0 mi South 10.4 mph 17.3 mph 0.00 in Snow Light Snow
2:24 PM 35.6 °F 27.5 °F 30.2 °F 81% 29.80 in 2.0 mi South 11.5 mph 18.4 mph 0.00 in Snow Light Snow
2:43 PM 35.6 °F 29.2 °F 30.2 °F 81% 29.80 in 4.0 mi South 8.1 mph 17.3 mph 0.00 in Snow Light Snow
2:53 PM 35.1 °F 27.9 °F 30.0 °F 82% 29.84 in 2.5 mi South 9.2 mph 18.4 mph 0.00 in Snow Light Snow
3:10 PM 33.8 °F 27.0 °F 30.2 °F 87% 29.79 in 1.5 mi South 8.1 mph 16.1 mph 0.01 in Snow Light Snow
3:28 PM 33.8 °F 26.4 °F 30.2 °F 87% 29.79 in 1.5 mi South 9.2 mph 17.3 mph 0.01 in Snow Light Snow
3:53 PM 34.0 °F 26.6 °F 30.9 °F 89% 29.84 in 1.5 mi South 9.2 mph - 0.02 in Snow Light Snow
4:21 PM 33.8 °F 26.4 °F 30.2 °F 87% 29.78 in 2.0 mi South 9.2 mph 16.1 mph 0.00 in Snow Light Snow
4:42 PM 33.8 °F 26.4 °F 30.2 °F 87% 29.78 in 3.0 mi South 9.2 mph 18.4 mph 0.00 in Snow Light Snow
4:53 PM 34.0 °F 26.6 °F 30.9 °F 89% 29.82 in 4.0 mi South 9.2 mph 18.4 mph 0.00 in   Overcast
5:53 PM 34.0 °F 25.5 °F 30.9 °F 89% 29.84 in 3.0 mi South 11.5 mph - 0.01 in Snow Light Snow
6:15 PM 33.8 °F 27.7 °F 30.2 °F 87% 29.80 in 1.8 mi Variable 6.9 mph 16.1 mph 0.00 in Snow Light Snow
6:24 PM 33.8 °F 25.3 °F 30.2 °F 87% 29.80 in 3.0 mi South 11.5 mph 17.3 mph 0.00 in Snow Light Snow
6:53 PM 34.0 °F 26.6 °F 32.0 °F 92% 29.87 in 7.0 mi SW 9.2 mph 18.4 mph 0.01 in   Overcast
7:53 PM 35.1 °F 28.6 °F 32.0 °F 89% 29.86 in 8.0 mi South 8.1 mph - 0.01 in   Overcast
8:07 PM 35.6 °F 29.2 °F 32.0 °F 87% 29.81 in 8.0 mi South 8.1 mph - N/A   Overcast
8:19 PM 35.6 °F 28.6 °F 32.0 °F 87% 29.81 in 8.0 mi South 9.2 mph - N/A   Overcast
8:46 PM 35.6 °F 29.9 °F 32.0 °F 87% 29.80 in 9.0 mi South 6.9 mph - N/A   Overcast
8:53 PM 35.1 °F 29.3 °F 33.1 °F 92% 29.84 in 9.0 mi South 6.9 mph - N/A   Overcast
9:22 PM 35.6 °F 28.6 °F 32.0 °F 87% 29.80 in 2.5 mi SW 9.2 mph - 0.01 in Rain Heavy Rain
9:29 PM 35.6 °F 29.2 °F 32.0 °F 87% 29.81 in 4.0 mi WSW 8.1 mph - 0.02 in Rain Light Rain
9:53 PM 36.0 °F 29.6 °F 33.1 °F 89% 29.85 in 9.0 mi SW 8.1 mph - 0.04 in   Overcast
10:53 PM 36.0 °F 29.0 °F 33.1 °F 89% 29.85 in 9.0 mi West 9.2 mph - 0.01 in   Overcast
11:00 PM 35.6 °F 26.2 °F 33.8 °F 93% 29.81 in 9.0 mi West 15.0 mph 19.6 mph N/A   Overcast
11:38 PM 35.6 °F 24.5 °F 28.4 °F 75% 29.83 in 10.0 mi WSW 20.7 mph 25.3 mph N/A   Overcast
11:53 PM 35.1 °F 25.5 °F 27.0 °F 72% 29.87 in 10.0 mi WSW 15.0 mph 24.2 mph N/A   Overcast